GW5357 Weather Reports


Display with metric or nautical units.
time (UTC)temp
F
wind
direction
speed
MPH
gust
MPH
rain 1hr
in
rain 24hr
in
rain mn
in
humidity
%
barometer
mb
20260508021505 60 219 1.0 3.0 0.00 0.00 0.00 70 1017.1
20260508021006 60 89 1.0 6.0 0.00 0.00 0.00 70 1017.0
20260508020505 60 209 2.0 6.0 0.00 0.00 0.00 69 1017.1
20260508020006 60 135 1.0 4.0 0.00 0.00 0.00 70 1017.0
20260508015504 61 190 1.0 6.0 0.00 0.00 0.00 69 1017.1
20260508015005 61 135 2.0 6.0 0.00 0.00 0.00 69 1017.1
20260508014006 61 56 3.0 5.0 0.00 0.00 0.00 69 1017.3
20260508013505 61 46 2.0 6.0 0.00 0.00 0.00 69 1017.5
20260508013006 61 178 2.0 6.0 0.00 0.00 0.00 69 1017.5
20260508012505 61 115 3.0 6.0 0.00 0.00 0.00 69 1017.6
20260508012005 61 135 2.0 6.0 0.00 0.00 0.00 69 1017.6
20260508011506 61 213 3.0 8.0 0.00 0.00 0.00 70 1017.7
20260508011004 61 206 4.0 8.0 0.00 0.00 0.00 70 1017.8
20260508005505 61 231 3.0 8.0 0.00 0.00 0.00 70 1017.9
20260508004505 61 89 2.0 7.0 0.00 0.00 0.00 74 1017.8
20260508003505 60 127 2.0 8.0 0.00 0.00 0.00 72 1017.8
20260508003006 60 314 2.0 5.0 0.00 0.00 0.00 74 1017.9
20260508002505 60 314 1.0 7.0 0.00 0.00 0.00 75 1017.8
20260508001506 61 250 2.0 6.0 0.00 0.00 0.00 71 1017.8
20260508001005 61 223 2.0 6.0 0.00 0.00 0.00 70 1017.9
20260508000006 61 154 3.0 7.0 0.00 0.00 0.00 68 1017.9
20260507235005 62 296 2.0 8.0 0.00 0.00 0.00 68 1017.9
20260507234006 62 125 2.0 6.0 0.00 0.00 0.00 64 1017.9
20260507233505 62 163 3.0 6.0 0.00 0.00 0.00 68 1017.9
20260507233006 62 286 2.0 6.0 0.00 0.00 0.00 67 1018.0
20260507232005 62 117 2.0 7.0 0.00 0.00 0.00 69 1018.1
20260507231505 61 108 2.0 7.0 0.00 0.00 0.00 70 1018.1
20260507230506 60 115 3.0 7.0 0.00 0.00 0.00 70 1018.1
20260507230007 60 89 2.0 7.0 0.00 0.00 0.00 71 1018.2
20260507225505 61 151 3.0 7.0 0.00 0.00 0.00 70 1018.2
20260507224505 62 181 2.0 6.0 0.00 0.00 0.00 73 1018.2
20260507224005 61 178 3.0 8.0 0.00 0.00 0.00 71 1018.3
20260507223504 61 169 3.0 8.0 0.00 0.00 0.00 72 1018.3
20260507223006 61 89 2.0 5.0 0.00 0.00 0.00 71 1018.3
20260507222505 61 206 2.0 6.0 0.00 0.00 0.00 71 1018.4
20260507222006 61 206 3.0 7.0 0.00 0.00 0.00 72 1018.5
20260507221506 60 108 4.0 9.0 0.00 0.00 0.00 73 1018.5
20260507221006 61 157 4.0 9.0 0.00 0.00 0.00 71 1018.6
20260507220505 61 289 3.0 9.0 0.00 0.00 0.00 74 1018.8
20260507215006 62 274 2.0 9.0 0.00 0.00 0.00 72 1018.9
20260507214505 61 122 2.0 9.0 0.00 0.00 0.00 72 1018.9
20260507214006 61 290 3.0 9.0 0.00 0.00 0.00 71 1018.8
20260507213005 62 212 2.0 9.0 0.00 0.00 0.00 72 1019.0
20260507212505 62 197 2.0 9.0 0.00 0.00 0.00 74 1019.0
20260507212006 62 169 3.0 8.0 0.00 0.00 0.00 72 1019.0
20260507211506 62 122 3.0 10.0 0.00 0.00 0.00 72 1019.0
20260507211005 62 190 3.0 6.0 0.00 0.00 0.00 72 1019.1
20260507205505 61 115 3.0 7.0 0.00 0.00 0.00 75 1019.2
20260507204005 60 264 3.0 7.0 0.00 0.00 0.00 74 1019.4
20260507203504 60 197 3.0 7.0 0.00 0.00 0.00 75 1019.5
20260507203006 60 229 2.0 7.0 0.00 0.00 0.00 75 1019.6
20260507202006 60 171 3.0 8.0 0.00 0.00 0.00 77 1019.7
20260507201505 60 269 2.0 7.0 0.00 0.00 0.00 77 1019.7
20260507201006 60 308 3.0 7.0 0.00 0.00 0.00 75 1019.8
20260507200505 59 234 3.0 6.0 0.00 0.00 0.00 75 1019.8
20260507200005 59 296 2.0 5.0 0.00 0.00 0.00 78 1019.9
20260507195505 59 135 2.0 8.0 0.00 0.00 0.00 74 1019.9
20260507195005 60 258 4.0 8.0 0.00 0.00 0.00 74 1019.9
20260507194506 59 89 3.0 7.0 0.00 0.00 0.00 76 1020.0
20260507194004 59 117 2.0 10.0 0.00 0.00 0.00 77 1020.1
20260507193005 58 46 2.0 7.0 0.00 0.00 0.00 77 1020.1
20260507192505 58 89 2.0 8.0 0.00 0.00 0.00 77 1020.1
20260507192004 58 183 3.0 8.0 0.00 0.00 0.00 77 1020.2
20260507190504 57 264 4.0 9.0 0.00 0.00 0.00 79 1020.3
20260507185504 57 46 3.0 7.0 0.00 0.00 0.00 75 1020.3
20260507185005 57 178 2.0 8.0 0.00 0.00 0.00 75 1020.3
20260507184505 57 165 3.0 8.0 0.00 0.00 0.00 77 1020.4
20260507184005 57 306 3.0 8.0 0.00 0.00 0.00 77 1020.4
20260507183505 56 272 3.0 8.0 0.00 0.00 0.00 76 1020.4
20260507183006 56 197 3.0 8.0 0.00 0.00 0.00 76 1020.5
20260507181506 56 213 2.0 7.0 0.00 0.00 0.00 75 1020.4
20260507181004 56 20 2.0 7.0 0.00 0.00 0.00 75 1020.4
20260507180504 57 161 2.0 5.0 0.00 0.00 0.00 76 1020.4
20260507180006 57 135 1.0 6.0 0.00 0.00 0.00 76 1020.4
20260507175505 57 269 1.0 6.0 0.00 0.00 0.00 76 1020.4
20260507175005 57 201 2.0 5.0 0.00 0.00 0.00 74 1020.4
20260507174504 56 193 2.0 5.0 0.00 0.00 0.00 74 1020.4
20260507174005 56 305 3.0 5.0 0.00 0.00 0.00 75 1020.4
20260507173506 56 1 2.0 5.0 0.00 0.00 0.00 74 1020.5
20260507173006 56 299 2.0 6.0 0.00 0.00 0.00 74 1020.5
20260507172504 57 299 2.0 6.0 0.00 0.00 0.00 73 1020.4
20260507172005 57 237 2.0 5.0 0.00 0.00 0.00 71 1020.4
20260507170506 57 234 2.0 4.0 0.00 0.00 0.00 72 1020.4
20260507170005 56 306 2.0 5.0 0.00 0.00 0.00 71 1020.4
20260507165505 56 142 1.0 6.0 0.00 0.00 0.00 73 1020.4
20260507165005 56 279 2.0 6.0 0.00 0.00 0.00 72 1020.4
20260507164506 56 314 3.0 6.0 0.00 0.00 0.00 72 1020.3
20260507164006 56 127 2.0 5.0 0.00 0.00 0.00 72 1020.3
20260507163005 56 206 2.0 5.0 0.00 0.00 0.00 74 1020.4
20260507162004 56 262 2.0 6.0 0.00 0.00 0.00 75 1020.4
20260507161505 55 193 2.0 4.0 0.00 0.00 0.00 74 1020.5
20260507161006 55 216 2.0 4.0 0.00 0.00 0.00 74 1020.4
20260507160504 55 213 2.0 4.0 0.00 0.00 0.00 74 1020.4
20260507160006 55 178 2.0 4.0 0.00 0.00 0.00 74 1020.4
20260507155005 56 336 2.0 4.0 0.00 0.00 0.00 72 1020.6
20260507154506 56 135 2.0 5.0 0.00 0.00 0.00 72 1020.6
20260507154007 56 145 2.0 5.0 0.00 0.00 0.00 73 1020.6
20260507153505 55 68 1.0 5.0 0.00 0.00 0.00 76 1020.7
20260507153006 55 241 1.0 5.0 0.00 0.00 0.00 76 1020.6
20260507152505 55 28 2.0 5.0 0.00 0.00 0.00 76 1020.7
20260507152005 55 254 1.0 4.0 0.00 0.00 0.00 77 1020.6
20260507151005 54 113 2.0 5.0 0.00 0.00 0.00 76 1020.6
20260507150504 54 129 2.0 4.0 0.00 0.00 0.00 77 1020.7
20260507150006 54 122 1.0 3.0 0.00 0.00 0.00 78 1020.6
20260507145508 53 127 1.0 4.0 0.00 0.00 0.00 78 1020.7
20260507145005 53 142 2.0 4.0 0.00 0.00 0.00 77 1020.8
20260507144504 53 148 2.0 3.0 0.00 0.00 0.00 77 1020.8
20260507144006 53 149 1.0 3.0 0.00 0.00 0.00 78 1020.8
20260507143505 53 46 1.0 3.0 0.00 0.00 0.00 79 1020.8
20260507143006 53 237 2.0 3.0 0.00 0.00 0.00 78 1020.6
20260507142005 53 124 2.0 4.0 0.00 0.00 0.00 79 1020.6
20260507141004 53 117 1.0 3.0 0.00 0.00 0.00 80 1020.4
20260507140006 53 152 1.0 3.0 0.00 0.00 0.00 80 1020.3
20260507135505 53 117 1.0 3.0 0.00 0.00 0.00 79 1020.4
20260507135004 53 113 1.0 3.0 0.00 0.00 0.00 80 1020.4
20260507134004 53 135 1.0 3.0 0.00 0.00 0.00 80 1020.3
20260507133504 53 127 1.0 3.0 0.00 0.00 0.00 80 1020.3
20260507132007 53 150 2.0 4.0 0.00 0.00 0.00 80 1020.1
20260507131505 53 142 3.0 4.0 0.00 0.00 0.00 80 1020.1
20260507131005 53 170 3.0 5.0 0.00 0.00 0.00 80 1020.1
20260507130504 53 139 3.0 5.0 0.00 0.00 0.00 80 1020.2
20260507130006 53 135 2.0 4.0 0.00 0.00 0.00 80 1020.2
20260507125504 53 108 1.0 3.0 0.00 0.00 0.00 80 1020.2
20260507125005 53 108 1.0 5.0 0.00 0.00 0.00 80 1020.3
20260507124505 53 223 2.0 5.0 0.00 0.00 0.00 79 1020.3
20260507124006 53 167 2.0 5.0 0.00 0.00 0.00 79 1020.3
20260507123500 53 117 2.0 4.0 0.00 0.00 0.00 80 1020.3
20260507123005 53 157 1.0 3.0 0.00 0.00 0.00 79 1020.4
20260507122500 53 28 1.0 2.0 0.00 0.00 0.00 79 1020.4
20260507121506 53 108 1.0 3.0 0.00 0.00 0.00 78 1020.5
20260507121004 53 135 1.0 3.0 0.00 0.00 0.00 78 1020.5
20260507120008 53 142 2.0 3.0 0.00 0.00 0.00 77 1020.5
20260507115506 53 147 2.0 3.0 0.00 0.00 0.00 78 1020.5
20260507115005 53 127 2.0 3.0 0.00 0.00 0.00 78 1020.6
20260507114505 53 127 2.0 3.0 0.00 0.00 0.00 77 1020.6
20260507114005 53 135 1.0 4.0 0.00 0.00 0.00 78 1020.6
20260507113504 53 156 1.0 4.0 0.00 0.00 0.00 78 1020.6
20260507113006 53 135 1.0 3.0 0.00 0.00 0.00 78 1020.7
20260507112505 53 195 1.0 5.0 0.00 0.00 0.00 78 1020.6
20260507111005 53 157 2.0 3.0 0.00 0.00 0.00 78 1020.6
20260507110504 53 157 1.0 5.0 0.00 0.00 0.00 77 1020.6
20260507105505 53 135 2.0 5.0 0.00 0.00 0.00 77 1020.6
20260507104001 53 143 2.0 5.0 0.00 0.00 0.00 77 1020.6
20260507103500 53 157 2.0 5.0 0.00 0.00 0.00 77 1020.6
20260507103006 53 148 2.0 5.0 0.00 0.00 0.00 77 1020.6
20260507102500 53 149 3.0 5.0 0.00 0.00 0.00 77 1020.6
20260507102007 53 125 3.0 5.0 0.00 0.00 0.00 77 1020.7
20260507101001 53 152 2.0 5.0 0.00 0.00 0.00 77 1020.7
20260507100500 53 157 3.0 6.0 0.00 0.00 0.00 77 1020.7
20260507100005 53 149 3.0 6.0 0.00 0.00 0.00 77 1020.8
20260507095500 53 150 3.0 6.0 0.00 0.00 0.00 77 1020.7
20260507095000 53 132 3.0 6.0 0.00 0.00 0.00 77 1020.7
20260507094506 53 120 3.0 8.0 0.00 0.00 0.00 77 1020.6
20260507094002 53 113 3.0 8.0 0.00 0.00 0.00 77 1020.7
20260507093500 54 135 3.0 7.0 0.00 0.00 0.00 77 1020.6
20260507093006 53 166 3.0 7.0 0.00 0.00 0.00 77 1020.6
20260507092500 53 161 3.0 7.0 0.00 0.00 0.00 77 1020.6
20260507092005 53 128 4.0 8.0 0.00 0.00 0.00 77 1020.6
20260507091505 53 167 4.0 8.0 0.00 0.00 0.00 78 1020.7
20260507091002 53 167 4.0 8.0 0.00 0.00 0.00 78 1020.6
20260507090500 54 108 3.0 8.0 0.00 0.00 0.00 78 1020.7
20260507090007 54 114 2.0 7.0 0.00 0.00 0.00 78 1020.6
20260507084505 54 139 5.0 9.0 0.00 0.00 0.00 77 1020.7
20260507084005 54 122 4.0 7.0 0.00 0.00 0.00 77 1020.6
20260507083501 54 138 4.0 8.0 0.00 0.00 0.00 78 1020.7
20260507083005 54 147 4.0 9.0 0.00 0.00 0.00 78 1020.7
20260507082500 54 145 3.0 9.0 0.00 0.00 0.00 78 1020.7
20260507081504 54 131 3.0 10.0 0.00 0.00 0.00 77 1020.7
20260507081002 54 125 4.0 7.0 0.00 0.00 0.00 77 1020.7
20260507080504 54 156 2.0 8.0 0.00 0.00 0.00 77 1020.7
20260507075505 54 117 3.0 7.0 0.00 0.00 0.00 77 1020.7
20260507075004 54 178 2.0 8.0 0.00 0.00 0.00 77 1020.7
20260507074502 54 178 4.0 8.0 0.00 0.00 0.00 77 1020.5
20260507074005 54 126 3.0 8.0 0.00 0.00 0.00 76 1020.5
20260507073500 54 110 3.0 8.0 0.00 0.00 0.00 76 1020.5
20260507073006 54 213 3.0 7.0 0.00 0.00 0.00 76 1020.5
20260507072504 54 117 3.0 9.0 0.00 0.00 0.00 75 1020.4
20260507072005 54 136 5.0 9.0 0.00 0.00 0.00 75 1020.4
20260507071505 54 138 5.0 10.0 0.00 0.00 0.00 75 1020.4
20260507071006 55 146 3.0 13.0 0.00 0.00 0.00 75 1020.4
20260507070506 55 127 5.0 13.0 0.00 0.00 0.00 75 1020.4
20260507070010 54 145 5.0 11.0 0.00 0.00 0.00 75 1020.3
20260507065507 54 136 5.0 11.0 0.00 0.00 0.00 76 1020.2
20260507065005 54 144 5.0 11.0 0.00 0.00 0.00 76 1020.2
20260507064506 54 152 4.0 11.0 0.00 0.00 0.00 77 1020.2
20260507064005 55 145 5.0 9.0 0.00 0.00 0.00 77 1020.1
20260507063505 55 178 5.0 11.0 0.00 0.00 0.00 77 1020.0
20260507063006 55 147 5.0 11.0 0.00 0.00 0.00 77 1020.1
20260507062505 55 63 4.0 11.0 0.00 0.00 0.00 77 1019.9
20260507062005 55 160 5.0 9.0 0.00 0.00 0.00 77 1019.9
20260507061505 55 144 3.0 8.0 0.00 0.00 0.00 78 1019.9
20260507061005 55 135 3.0 8.0 0.00 0.00 0.00 78 1020.0
20260507060505 55 165 5.0 9.0 0.00 0.00 0.00 78 1020.0
20260507055506 55 164 3.0 7.0 0.00 0.00 0.00 78 1020.0
20260507055006 55 149 4.0 11.0 0.00 0.00 0.00 78 1020.0
20260507054506 55 141 4.0 11.0 0.00 0.00 0.00 77 1019.9
20260507054005 55 107 5.0 11.0 0.00 0.00 0.00 77 1019.9
20260507053506 55 131 5.0 11.0 0.00 0.00 0.00 77 1019.9
20260507053006 55 175 4.0 7.0 0.00 0.00 0.00 77 1020.0
20260507052505 55 143 4.0 10.0 0.00 0.00 0.00 78 1020.0
20260507052006 55 300 5.0 10.0 0.00 0.00 0.00 78 1020.0
20260507051005 55 178 4.0 7.0 0.00 0.00 0.00 78 1020.0
20260507050506 55 123 3.0 7.0 0.00 0.00 0.00 78 1020.2
20260507045505 55 269 3.0 7.0 0.00 0.00 0.00 78 1020.3
20260507045006 55 124 3.0 8.0 0.00 0.00 0.00 78 1020.3
20260507044506 56 213 3.0 8.0 0.00 0.00 0.00 78 1020.2
20260507044005 56 195 3.0 9.0 0.00 0.00 0.00 77 1020.2
20260507043505 56 143 4.0 9.0 0.00 0.00 0.00 77 1020.1
20260507043006 56 117 3.0 11.0 0.00 0.00 0.00 78 1020.0
20260507042505 56 124 4.0 11.0 0.00 0.00 0.00 78 1020.0
20260507042006 55 124 3.0 10.0 0.00 0.00 0.00 78 1019.9
20260507041005 56 161 5.0 9.0 0.00 0.00 0.00 78 1019.9
20260507040507 56 103 4.0 9.0 0.00 0.00 0.00 78 1020.0
20260507040008 56 161 4.0 9.0 0.00 0.00 0.00 78 1019.9
20260507035505 56 155 4.0 7.0 0.00 0.00 0.00 78 1020.0
20260507035006 56 114 3.0 10.0 0.00 0.00 0.00 78 1019.9
20260507034506 56 135 3.0 10.0 0.00 0.00 0.00 78 1019.9
20260507034005 56 162 2.0 9.0 0.00 0.00 0.00 78 1019.9
20260507033506 56 117 3.0 9.0 0.00 0.00 0.00 77 1019.9
20260507033006 56 127 4.0 9.0 0.00 0.00 0.00 77 1019.8
20260507032504 56 167 4.0 10.0 0.00 0.00 0.00 78 1019.9
20260507032006 56 149 3.0 10.0 0.00 0.00 0.00 78 1019.8
20260507031506 56 131 2.0 10.0 0.00 0.00 0.00 78 1019.7
20260507031005 55 122 6.0 10.0 0.00 0.00 0.00 78 1019.6
20260507030506 56 142 5.0 9.0 0.00 0.00 0.00 78 1019.6
20260507030007 56 133 3.0 8.0 0.00 0.00 0.00 78 1019.8
20260507025506 56 105 3.0 7.0 0.00 0.00 0.00 78 1019.8
20260507025005 55 161 3.0 9.0 0.00 0.00 0.00 79 1019.9
20260507024506 55 122 3.0 9.0 0.00 0.00 0.00 79 1019.9
20260507024006 55 163 3.0 7.0 0.00 0.00 0.00 80 1019.8
20260507023505 55 130 3.0 7.0 0.00 0.00 0.00 79 1019.8
20260507023007 55 151 3.0 7.0 0.00 0.00 0.00 79 1019.9
20260507022506 55 100 2.0 9.0 0.00 0.00 0.00 78 1019.9